| time (UTC) | temp C | wind direction | speed KPH | gust KPH | rain 1hr cm | rain 24hr cm | rain mn cm | humidity % | barometer mb |
| 20260505025312 | 29 | 165 | 0.0 | 1.6 | 0.00 | 0.00 | 0.00 | 63 | 985.0 |
| 20260505024811 | 28 | 113 | 0.0 | 0.0 | 0.00 | 0.00 | 0.00 | 65 | 985.0 |
| 20260505024311 | 29 | 120 | 0.0 | 1.6 | 0.00 | 0.00 | 0.00 | 66 | 985.0 |
| 20260505023811 | 28 | 50 | 1.6 | 1.6 | 0.00 | 0.00 | 0.00 | 66 | 985.0 |
| 20260505023311 | 28 | 126 | 0.0 | 0.0 | 0.00 | 0.00 | 0.00 | 68 | 985.0 |
| 20260505022812 | 28 | 126 | 0.0 | 0.0 | 0.00 | 0.00 | 0.00 | 69 | 985.0 |
| 20260505022311 | 28 | 136 | 0.0 | 0.0 | 0.00 | 0.00 | 0.00 | 70 | 985.0 |
| 20260505021812 | 27 | 124 | 0.0 | 0.0 | 0.00 | 0.00 | 0.00 | 72 | 985.0 |
| 20260505021311 | 27 | 127 | 0.0 | 0.0 | 0.00 | 0.00 | 0.00 | 72 | 985.0 |
| 20260505020811 | 27 | 132 | 0.0 | 0.0 | 0.00 | 0.00 | 0.00 | 72 | 985.0 |
| 20260505020311 | 27 | 117 | 0.0 | 1.6 | 0.00 | 0.00 | 0.00 | 73 | 985.0 |
| 20260505015811 | 27 | 128 | 0.0 | 0.0 | 0.00 | 0.00 | 0.00 | 73 | 985.0 |
| 20260505015312 | 27 | 122 | 0.0 | 0.0 | 0.00 | 0.00 | 0.00 | 74 | 985.0 |
| 20260505014811 | 26 | 121 | 0.0 | 0.0 | 0.00 | 0.00 | 0.00 | 74 | 985.0 |
| 20260505014312 | 26 | 137 | 0.0 | 0.0 | 0.00 | 0.00 | 0.00 | 75 | 985.0 |
| 20260505013812 | 26 | 146 | 0.0 | 1.6 | 0.00 | 0.00 | 0.00 | 75 | 985.0 |
| 20260505013311 | 26 | 172 | 0.0 | 0.0 | 0.00 | 0.00 | 0.00 | 75 | 985.0 |
| 20260505012811 | 26 | 140 | 0.0 | 0.0 | 0.00 | 0.00 | 0.00 | 75 | 985.0 |
| 20260505012312 | 26 | 91 | 1.6 | 1.6 | 0.00 | 0.00 | 0.00 | 76 | 985.0 |
| 20260505011815 | 26 | 69 | 0.0 | 1.6 | 0.00 | 0.00 | 0.00 | 76 | 985.0 |
| 20260505011312 | 26 | 114 | 0.0 | 0.0 | 0.00 | 0.00 | 0.00 | 76 | 985.0 |
| 20260505010811 | 26 | 126 | 0.0 | 0.0 | 0.00 | 0.00 | 0.00 | 76 | 985.0 |
| 20260505010312 | 26 | 124 | 0.0 | 0.0 | 0.00 | 0.00 | 0.00 | 77 | 985.0 |
| 20260505005811 | 26 | 122 | 0.0 | 0.0 | 0.00 | 0.00 | 0.00 | 77 | 985.0 |
| 20260505005311 | 26 | 62 | 1.6 | 1.6 | 0.00 | 0.00 | 0.00 | 77 | 985.0 |
| 20260505004811 | 25 | 123 | 0.0 | 0.0 | 0.00 | 0.00 | 0.00 | 77 | 985.0 |
| 20260505004311 | 25 | 121 | 0.0 | 0.0 | 0.00 | 0.00 | 0.00 | 77 | 985.0 |
| 20260505003813 | 25 | 130 | 0.0 | 0.0 | 0.00 | 0.00 | 0.00 | 78 | 985.0 |
| 20260505003314 | 25 | 124 | 0.0 | 0.0 | 0.00 | 0.00 | 0.00 | 78 | 985.0 |
| 20260505002811 | 26 | 130 | 0.0 | 0.0 | 0.00 | 0.00 | 0.00 | 78 | 985.0 |
| 20260504172811 | 27 | 132 | 0.0 | 0.0 | 0.00 | 0.00 | 0.20 | 70 | 986.0 |
| 20260504172314 | 27 | 122 | 0.0 | 0.0 | 0.00 | 0.00 | 0.20 | 69 | 986.0 |
| 20260504171812 | 26 | 88 | 3.2 | 3.2 | 0.00 | 0.00 | 0.20 | 70 | 986.0 |
| 20260504171312 | 26 | 112 | 3.2 | 4.8 | 0.00 | 0.00 | 0.20 | 70 | 986.0 |
| 20260504170811 | 26 | 37 | 11.3 | 16.1 | 0.00 | 0.00 | 0.20 | 70 | 986.0 |
| 20260504170312 | 26 | 104 | 4.8 | 6.4 | 0.00 | 0.00 | 0.20 | 70 | 986.0 |
| 20260504160313 | 27 | 204 | 1.6 | 1.6 | 0.00 | 0.00 | 0.20 | 68 | 985.0 |
| 20260504150812 | 28 | 124 | 3.2 | 6.4 | 0.00 | 0.00 | 0.20 | 65 | 984.0 |
| 20260504150315 | 28 | 118 | 3.2 | 3.2 | 0.00 | 0.00 | 0.20 | 65 | 984.0 |
| 20260504141315 | 28 | 110 | 1.6 | 1.6 | 0.00 | 0.00 | 0.20 | 63 | 983.0 |
| 20260504140815 | 28 | 116 | 0.0 | 0.0 | 0.00 | 0.00 | 0.20 | 63 | 983.0 |
| 20260504140312 | 28 | 117 | 0.0 | 0.0 | 0.00 | 0.00 | 0.20 | 64 | 983.0 |
| 20260504130815 | 30 | 147 | 0.0 | 1.6 | 0.00 | 0.00 | 0.20 | 60 | 982.0 |
| 20260504130315 | 30 | 221 | 1.6 | 1.6 | 0.00 | 0.00 | 0.20 | 59 | 981.0 |
| 20260504120312 | 30 | 111 | 1.6 | 1.6 | 0.00 | 0.00 | 0.20 | 54 | 981.0 |
| 20260504110311 | 30 | 129 | 9.7 | 14.5 | 0.00 | 0.00 | 0.20 | 66 | 981.0 |
| 20260504100312 | 36 | 114 | 0.0 | 0.0 | 0.00 | 0.00 | 0.20 | 52 | 980.0 |
| 20260504081812 | 35 | 183 | 4.8 | 4.8 | 0.00 | 0.00 | 0.20 | 59 | 982.0 |
| 20260504081311 | 35 | 165 | 3.2 | 3.2 | 0.00 | 0.00 | 0.20 | 59 | 982.0 |
| 20260504080811 | 34 | 125 | 3.2 | 4.8 | 0.00 | 0.00 | 0.20 | 60 | 982.0 |
| 20260504080312 | 34 | 156 | 3.2 | 4.8 | 0.00 | 0.00 | 0.20 | 61 | 982.0 |
| 20260504070311 | 33 | 134 | 3.2 | 3.2 | 0.00 | 0.00 | 0.20 | 63 | 983.0 |
| 20260504050311 | 32 | 144 | 3.2 | 3.2 | 0.00 | 0.00 | 0.20 | 58 | 985.0 |
| 20260504045811 | 32 | 117 | 0.0 | 1.6 | 0.00 | 0.00 | 0.20 | 57 | 985.0 |
| 20260504045312 | 31 | 160 | 1.6 | 1.6 | 0.00 | 0.00 | 0.20 | 61 | 985.0 |
| 20260504044811 | 31 | 179 | 3.2 | 3.2 | 0.00 | 0.00 | 0.20 | 60 | 985.0 |
| 20260504044311 | 31 | 155 | 1.6 | 1.6 | 0.00 | 0.00 | 0.20 | 62 | 985.0 |
| 20260504043811 | 31 | 168 | 3.2 | 3.2 | 0.00 | 0.00 | 0.20 | 62 | 985.0 |
| 20260504043311 | 31 | 128 | 0.0 | 0.0 | 0.00 | 0.00 | 0.20 | 64 | 985.0 |
| 20260504042811 | 30 | 179 | 1.6 | 1.6 | 0.00 | 0.00 | 0.20 | 64 | 985.0 |
| 20260504042312 | 30 | 120 | 0.0 | 0.0 | 0.00 | 0.00 | 0.20 | 65 | 985.0 |
| 20260504041812 | 30 | 118 | 0.0 | 0.0 | 0.00 | 0.00 | 0.20 | 66 | 985.0 |
| 20260504041311 | 30 | 119 | 0.0 | 0.0 | 0.00 | 0.00 | 0.20 | 67 | 985.0 |
| 20260504040811 | 30 | 135 | 1.6 | 3.2 | 0.00 | 0.00 | 0.20 | 66 | 985.0 |
| 20260504040311 | 30 | 191 | 1.6 | 1.6 | 0.00 | 0.00 | 0.20 | 65 | 985.0 |
| 20260504035811 | 30 | 115 | 1.6 | 3.2 | 0.00 | 0.00 | 0.20 | 67 | 985.0 |
| 20260504035312 | 29 | 162 | 3.2 | 3.2 | 0.00 | 0.00 | 0.20 | 68 | 985.0 |
| 20260504034811 | 29 | 198 | 1.6 | 3.2 | 0.00 | 0.00 | 0.20 | 68 | 986.0 |
| 20260504034312 | 30 | 159 | 1.6 | 3.2 | 0.00 | 0.00 | 0.20 | 66 | 986.0 |
| 20260504033811 | 29 | 153 | 4.8 | 4.8 | 0.00 | 0.00 | 0.20 | 67 | 985.0 |
| 20260504033312 | 29 | 162 | 1.6 | 1.6 | 0.00 | 0.00 | 0.20 | 70 | 985.0 |
| 20260504032812 | 29 | 161 | 1.6 | 1.6 | 0.00 | 0.00 | 0.20 | 68 | 985.0 |
| 20260504032312 | 29 | 141 | 0.0 | 1.6 | 0.00 | 0.00 | 0.20 | 69 | 985.0 |
| 20260504031812 | 28 | 115 | 0.0 | 0.0 | 0.00 | 0.00 | 0.20 | 73 | 985.0 |
| 20260504031311 | 28 | 98 | 1.6 | 1.6 | 0.00 | 0.00 | 0.20 | 72 | 985.0 |
| 20260504030812 | 28 | 122 | 0.0 | 0.0 | 0.00 | 0.00 | 0.20 | 73 | 985.0 |
| 20260504030311 | 27 | 119 | 1.6 | 1.6 | 0.00 | 0.00 | 0.20 | 75 | 985.0 |
| 20260504025812 | 27 | 112 | 0.0 | 0.0 | 0.00 | 0.00 | 0.20 | 75 | 985.0 |